FW5729 Weather Reports


Display with metric or nautical units.
time (UTC)temp
F
wind
direction
speed
MPH
gust
MPH
rain 1hr
in
rain 24hr
in
rain mn
in
humidity
%
barometer
mb
20260504081536 60 0 0.0 1.0 0.00 0.00 0.00 81 1014.3
20260504044540 65 201 0.0 4.0 0.00 0.00 0.00 60 1016.6
20260504043035 65 0 0.0 6.0 0.00 0.00 0.00 59 1016.7
20260504041535 65 200 1.0 4.0 0.00 0.00 0.00 58 1016.6
20260504040041 65 178 1.0 3.0 0.00 0.00 0.00 57 1016.6
20260504034552 66 0 0.0 2.0 0.00 0.00 0.00 55 1016.6
20260504033033 66 0 0.0 2.0 0.00 0.00 0.00 54 1016.7
20260504031535 66 0 0.0 2.0 0.00 0.00 0.00 54 1016.5
20260504030043 67 0 0.0 1.0 0.00 0.00 0.00 53 1016.6
20260504024536 67 0 0.0 2.0 0.00 0.00 0.00 52 1016.6
20260504023057 68 0 0.0 1.0 0.00 0.00 0.00 51 1016.5
20260504021530 68 0 0.0 0.0 0.00 0.00 0.00 50 1016.4
20260504020038 69 0 0.0 2.0 0.00 0.00 0.00 49 1016.3
20260504014544 69 0 0.0 3.0 0.00 0.00 0.00 49 1016.2
20260504013043 70 0 0.0 1.0 0.00 0.00 0.00 46 1015.9
20260504011530 71 0 0.0 0.0 0.00 0.00 0.00 45 1015.9
20260504010030 72 0 0.0 2.0 0.00 0.00 0.00 44 1015.8
20260504004537 73 0 0.0 2.0 0.00 0.00 0.00 42 1015.8
20260504003037 74 176 0.0 2.0 0.00 0.00 0.00 41 1015.9
20260504001534 75 0 0.0 3.0 0.00 0.00 0.00 41 1016.0
20260504000033 76 220 0.0 6.0 0.00 0.00 0.00 38 1016.1
20260503234541 77 224 2.0 6.0 0.00 0.00 0.00 35 1016.3
20260503233033 79 172 2.0 7.0 0.00 0.00 0.00 35 1016.4
20260503231534 78 201 1.0 5.0 0.00 0.00 0.00 35 1016.5
20260503230041 78 226 0.0 4.0 0.00 0.00 0.00 35 1016.4
20260503224540 79 222 1.0 6.0 0.00 0.00 0.00 34 1016.3
20260503223035 82 0 1.0 8.0 0.00 0.00 0.00 33 1016.6
20260503221540 82 183 2.0 6.0 0.00 0.00 0.00 31 1017.0
20260503220041 82 221 2.0 6.0 0.00 0.00 0.00 32 1017.0
20260503214535 82 210 0.0 6.0 0.00 0.00 0.00 33 1017.1
20260503213046 81 216 1.0 4.0 0.00 0.00 0.00 33 1017.4
20260503211534 82 182 2.0 7.0 0.00 0.00 0.00 32 1017.7
20260503210053 82 200 2.0 7.0 0.00 0.00 0.00 33 1018.1
20260503204549 81 239 1.0 7.0 0.00 0.00 0.00 31 1018.5
20260503203033 81 103 1.0 5.0 0.00 0.00 0.00 34 1018.6
20260503201537 80 261 1.0 6.0 0.00 0.00 0.00 33 1018.9
20260503200046 81 67 1.0 6.0 0.00 0.00 0.00 30 1019.1
20260503194532 81 267 3.0 8.0 0.00 0.00 0.00 31 1019.4
20260503193047 81 154 1.0 4.0 0.00 0.00 0.00 31 1019.6
20260503191538 80 53 2.0 6.0 0.00 0.00 0.00 31 1019.6
20260503190037 80 230 3.0 9.0 0.00 0.00 0.00 31 1020.0
20260503184545 80 183 2.0 8.0 0.00 0.00 0.00 32 1020.2
20260503183054 80 220 1.0 7.0 0.00 0.00 0.00 34 1020.4
20260503181535 80 295 1.0 6.0 0.00 0.00 0.00 32 1020.6
20260503180041 79 216 2.0 8.0 0.00 0.00 0.00 32 1020.9
20260503174535 79 200 2.0 6.0 0.00 0.00 0.00 34 1021.3
20260503173107 78 217 2.0 9.0 0.00 0.00 0.00 35 1021.4
20260503171535 78 206 1.0 5.0 0.00 0.00 0.00 36 1021.5